STARLINK-35857, 67186

Orbit data source: Space-Track

STARLINK-35857, 67186 is a payload satellite owned by SpaceX/Seattle (US) in LEO that was launched on Wed, 17 Dec 2025 UTC via an FALCON 9 launch vehicle from the Air Force Eastern Test Range (AFETR). Payload-class satellites include a variety of spacecraft equipped with specific instruments for various scientific and technological missions. These include communications satellites like Starlink; space stations such as the ISS; scientific satellites like the Hubble; Earth observation satellites from companies like Planet Labs, Umbra, and HawkEye 360; GPS; miniature CubeSats for education and research; and military/defense satellites.

Loading next visibility...
Identifier
67186, 2025-303Z
Orbit
LEO
Country
Flag of USUS
Related business
Manufacturer
SpaceX/Seattle
Mission
Operational Commercial Communications
Bus & Motor
STARLINK V2MO, Unknown motor
Mass
575 kg wet, ~530 kg dry
Launch date (UTC)
2025-12-17 (6 months ago)
Launch vehicle
FALCON 9
Launch site
Air Force Eastern Test Range (AFETR)
Object type
Payload
Rocket body
Debris
Shape & HBR
Box + 2 Pan, 17.7 m
Radar Cross Section
36.964 m², Large (>1 m²)

Expand to show TLE details & history
Last TLE update: 17 hours ago

TLE from 17 hours ago
0 STARLINK-35857
1 67186U 25303Z   26171.13011014  .00014151  00000-0  52257-3 0  9995
2 67186  42.9986  92.0485 0001453 258.3175 101.7514 15.27593205 28402
Epoch: 2026-06-20T03:07Z
TLE epoch observation values (Epoch: 2026-06-20T03:07:21.516Z)
Latitude
0.00003°
Longitude
136.85972°
Altitude
482.988 km
Speed
7.626 km/s
True Right ascension
06h 08m 11s
True Declination
0° 00' 00"
Sunlit
Object was in daylight at epoch
Visualization orbit readout
Latitude
Unknown
Longitude
Unknown
Altitude
Unknown
Speed
Unknown
Apparent Right ascension
Unknown
Apparent Declination
Unknown
Sunlit
N/A
Visualization observer readout
Local Sidereal Time
07:15:11
Azimuth
Unknown
Elevation
Unknown
Doppler factor
Unknown
Orbital elements
Apogee altitude
485.952 km
Perigee altitude
483.958 km
Semi-major axis
6,863.092 km
Eccentricity
0.00015
Inclination
42.9986°
RAAN
92.0485°
Arg. of periapsis
258.3175°
True anomaly
101.7677°
Mean anomaly
101.7514°
Eccentric anomaly
101.75955°
Mean motion
3.81736 °/min
Orbital period
94.31 mins
BSTAR
0.00052257
Loading maneuver chart data...
Computing Atmospheric mass density...
Loading historical data...
Loading historical data...
Loading historical data...
Loading historical data...
Loading historical data...
Loading historical data...
Loading historical data...

Documentation

Showing up to 5 results
|